• In United Kingdom
  • List of Countries
  • For 7 days
  • Water Temperature
  • Satellite Maps
  • Weather Map
  • Weather Widgets
  • user-avatar
    Login

    Hourly Weather Mbandaka

    Today, 23 November, Thursday

    Time Temperature Precipitation Wind Pressure Humidity
    00:00 +24°C° 0 mm 0 mps 729 mmHg 81%
    01:00 +23°C° 0 mm 0 mps 729 mmHg 82%
    02:00 +25°C° 0.2 mm 1 mps 729 mmHg 85%
    03:00 +24°C° 0.2 mm 1 mps 729 mmHg 87%
    04:00 +24°C° 0.2 mm 1 mps 730 mmHg 90%
    05:00 +24°C° 0.2 mm 1 mps 730 mmHg 90%
    06:00 +25°C° 0.2 mm 1 mps 730 mmHg 91%
    07:00 +23°C° 0 mm 0 mps 731 mmHg 93%
    08:00 +27°C° 0.7 mm 1 mps 731 mmHg 87%
    09:00 +28°C° 0.7 mm 1 mps 731 mmHg 81%
    10:00 +30°C° 0.7 mm 2 mps 731 mmHg 75%
    11:00 +31°C° 0.3 mm 1 mps 730 mmHg 68%
    12:00 +33°C° 0.3 mm 1 mps 730 mmHg 61%
    13:00 +34°C° 0.3 mm 1 mps 729 mmHg 53%
    14:00 +33°C° 0.7 mm 1 mps 729 mmHg 62%
    15:00 +31°C° 0.7 mm 1 mps 729 mmHg 70%
    16:00 +28°C° 0.7 mm 0 mps 728 mmHg 78%
    17:00 +28°C° 0.4 mm 1 mps 728 mmHg 82%
    18:00 +27°C° 0.4 mm 1 mps 729 mmHg 87%
    19:00 +26°C° 0.4 mm 1 mps 729 mmHg 91%
    20:00 +25°C° 0 mm 1 mps 729 mmHg 91%
    21:00 +25°C° 0 mm 1 mps 730 mmHg 91%
    22:00 +23°C° 0 mm 0 mps 730 mmHg 91%
    23:00 +25°C° 0 mm 1 mps 730 mmHg 91%

    Tomorrow, 24 November, Friday

    Time Temperature Precipitation Wind Pressure Humidity
    00:00 +24°C° 0 mm 1 mps 730 mmHg 92%
    01:00 +24°C° 0 mm 1 mps 730 mmHg 93%
    02:00 +22°C° 0 mm 0 mps 730 mmHg 94%
    03:00 +22°C° 0 mm 0 mps 729 mmHg 95%
    04:00 +21°C° 0 mm 0 mps 729 mmHg 96%
    05:00 +22°C° 0.2 mm 0 mps 730 mmHg 94%
    06:00 +23°C° 0.2 mm 0 mps 730 mmHg 92%
    07:00 +25°C° 0.2 mm 1 mps 731 mmHg 90%
    08:00 +28°C° 0.2 mm 1 mps 731 mmHg 80%
    09:00 +30°C° 0.2 mm 1 mps 731 mmHg 70%
    10:00 +32°C° 0.2 mm 2 mps 731 mmHg 60%
    11:00 +34°C° 0 mm 2 mps 731 mmHg 54%
    12:00 +35°C° 0 mm 1 mps 730 mmHg 47%
    13:00 +36°C° 0 mm 1 mps 729 mmHg 40%
    14:00 +35°C° 0 mm 1 mps 729 mmHg 44%
    15:00 +34°C° 0 mm 1 mps 728 mmHg 47%
    16:00 +33°C° 0 mm 1 mps 728 mmHg 50%
    17:00 +31°C° 0 mm 1 mps 728 mmHg 57%
    18:00 +30°C° 0 mm 1 mps 729 mmHg 64%
    19:00 +28°C° 0 mm 1 mps 729 mmHg 71%
    20:00 +27°C° 0.1 mm 1 mps 730 mmHg 75%
    21:00 +26°C° 0.1 mm 1 mps 730 mmHg 80%
    22:00 +25°C° 0.1 mm 1 mps 731 mmHg 84%
    23:00 +25°C° 0 mm 1 mps 731 mmHg 86%

    Day after tomorrow, 25 November, Saturday

    Time Temperature Precipitation Wind Pressure Humidity
    00:00 +25°C° 0 mm 1 mps 730 mmHg 88%
    01:00 +24°C° 0 mm 1 mps 730 mmHg 90%
    02:00 +24°C° 0 mm 1 mps 730 mmHg 92%
    03:00 +23°C° 0 mm 1 mps 730 mmHg 94%
    04:00 +23°C° 0 mm 1 mps 730 mmHg 96%
    05:00 +23°C° 0.2 mm 1 mps 730 mmHg 94%
    06:00 +24°C° 0.2 mm 1 mps 731 mmHg 93%
    07:00 +25°C° 0.2 mm 1 mps 732 mmHg 91%
    08:00 +27°C° 0.1 mm 1 mps 732 mmHg 80%
    09:00 +30°C° 0.1 mm 2 mps 732 mmHg 69%
    10:00 +32°C° 0.1 mm 2 mps 732 mmHg 58%
    11:00 +34°C° 0.1 mm 2 mps 732 mmHg 52%
    12:00 +35°C° 0.1 mm 2 mps 731 mmHg 46%
    13:00 +36°C° 0.1 mm 1 mps 730 mmHg 41%
    14:00 +34°C° 0.1 mm 1 mps 729 mmHg 47%
    15:00 +33°C° 0.1 mm 1 mps 729 mmHg 53%
    16:00 +31°C° 0.1 mm 1 mps 729 mmHg 59%
    17:00 +30°C° 0.2 mm 1 mps 729 mmHg 64%
    18:00 +28°C° 0.2 mm 1 mps 730 mmHg 70%
    19:00 +27°C° 0.2 mm 1 mps 731 mmHg 76%
    20:00 +26°C° 0.2 mm 1 mps 731 mmHg 80%
    21:00 +26°C° 0.2 mm 1 mps 731 mmHg 84%
    22:00 +25°C° 0.2 mm 1 mps 732 mmHg 89%
    23:00 +25°C° 0.2 mm 1 mps 732 mmHg 91%

    26 November, Sunday

    Time Temperature Precipitation Wind Pressure Humidity
    00:00 +24°C° 0.2 mm 1 mps 732 mmHg 94%
    01:00 +24°C° 0.2 mm 1 mps 731 mmHg 96%
    02:00 +24°C° 1 mm 1 mps 731 mmHg 97%
    03:00 +23°C° 1 mm 1 mps 731 mmHg 97%
    04:00 +23°C° 1 mm 1 mps 731 mmHg 98%
    05:00 +23°C° 0.5 mm 1 mps 732 mmHg 97%
    06:00 +22°C° 0.5 mm 0 mps 732 mmHg 96%
    07:00 +22°C° 0.5 mm 0 mps 733 mmHg 95%
    08:00 +25°C° 0 mm 1 mps 733 mmHg 89%
    09:00 +26°C° 0 mm 1 mps 733 mmHg 84%
    10:00 +27°C° 0 mm 1 mps 733 mmHg 79%
    11:00 +29°C° 0 mm 1 mps 733 mmHg 71%
    12:00 +30°C° 0 mm 1 mps 732 mmHg 63%
    13:00 +31°C° 0 mm 1 mps 731 mmHg 55%
    14:00 +31°C° 0 mm 1 mps 730 mmHg 57%
    15:00 +31°C° 0 mm 1 mps 730 mmHg 58%
    16:00 +30°C° 0 mm 1 mps 729 mmHg 60%
    17:00 +29°C° 0 mm 1 mps 730 mmHg 67%
    18:00 +27°C° 0 mm 1 mps 731 mmHg 75%
    19:00 +25°C° 0 mm 1 mps 731 mmHg 83%
    20:00 +25°C° 0 mm 1 mps 732 mmHg 82%
    21:00 +24°C° 0 mm 1 mps 732 mmHg 82%
    22:00 +24°C° 0 mm 1 mps 733 mmHg 82%
    23:00 +24°C° 0 mm 1 mps 732 mmHg 83%

    27 November, Monday

    Time Temperature Precipitation Wind Pressure Humidity
    00:00 +24°C° 0 mm 1 mps 732 mmHg 83%
    01:00 +24°C° 0 mm 1 mps 731 mmHg 83%
    02:00 +23°C° 0 mm 1 mps 731 mmHg 86%
    03:00 +23°C° 0 mm 1 mps 731 mmHg 89%
    04:00 +22°C° 0 mm 1 mps 731 mmHg 91%
    05:00 +23°C° 0 mm 1 mps 732 mmHg 88%
    06:00 +24°C° 0 mm 1 mps 732 mmHg 84%
    07:00 +25°C° 0 mm 1 mps 733 mmHg 80%
    08:00 +28°C° 0 mm 1 mps 733 mmHg 70%
    09:00 +30°C° 0 mm 1 mps 733 mmHg 60%
    10:00 +33°C° 0 mm 1 mps 733 mmHg 50%
    11:00 +35°C° 0 mm 1 mps 732 mmHg 45%
    12:00 +36°C° 0 mm 1 mps 731 mmHg 40%
    13:00 +36°C° 0 mm 0 mps 730 mmHg 35%
    14:00 +34°C° 0 mm 0 mps 730 mmHg 41%
    15:00 +33°C° 0 mm 0 mps 729 mmHg 46%
    16:00 +33°C° 0 mm 1 mps 729 mmHg 52%
    17:00 +32°C° 0 mm 1 mps 729 mmHg 56%
    18:00 +30°C° 0 mm 1 mps 730 mmHg 60%
    19:00 +27°C° 0 mm 0 mps 730 mmHg 64%
    20:00 +26°C° 0.4 mm 0 mps 731 mmHg 69%
    21:00 +25°C° 0.4 mm 0 mps 731 mmHg 75%
    22:00 +24°C° 0.4 mm 0 mps 731 mmHg 80%
    23:00 +24°C° 0.2 mm 0 mps 731 mmHg 82%

    28 November, Tuesday

    Time Temperature Precipitation Wind Pressure Humidity
    00:00 +23°C° 0.2 mm 0 mps 731 mmHg 85%
    01:00 +23°C° 0.2 mm 0 mps 731 mmHg 87%
    02:00 +23°C° 0.1 mm 0 mps 731 mmHg 88%
    03:00 +23°C° 0.1 mm 0 mps 731 mmHg 89%
    04:00 +22°C° 0.1 mm 0 mps 731 mmHg 89%
    05:00 +23°C° 0.5 mm 0 mps 731 mmHg 89%
    06:00 +23°C° 0.5 mm 0 mps 732 mmHg 89%
    07:00 +23°C° 0.5 mm 0 mps 733 mmHg 89%
    08:00 +25°C° 1.3 mm 0 mps 732 mmHg 84%
    09:00 +26°C° 1.3 mm 0 mps 732 mmHg 79%
    10:00 +28°C° 1.3 mm 0 mps 732 mmHg 75%
    11:00 +32°C° 0.3 mm 1 mps 732 mmHg 65%
    12:00 +33°C° 0.3 mm 1 mps 731 mmHg 55%
    13:00 +35°C° 0.3 mm 1 mps 730 mmHg 46%
    14:00 +34°C° 0 mm 1 mps 729 mmHg 49%
    15:00 +33°C° 0 mm 1 mps 729 mmHg 53%
    16:00 +30°C° 0 mm 0 mps 729 mmHg 56%
    17:00 +29°C° 0 mm 0 mps 729 mmHg 62%
    18:00 +27°C° 0 mm 0 mps 729 mmHg 67%
    19:00 +26°C° 0 mm 0 mps 730 mmHg 72%
    20:00 +25°C° 0.1 mm 0 mps 730 mmHg 76%
    21:00 +26°C° 0.1 mm 1 mps 730 mmHg 80%
    22:00 +25°C° 0.1 mm 1 mps 731 mmHg 84%
    23:00 +25°C° 0.1 mm 1 mps 730 mmHg 86%
    Show more